Location: Caltech
(34.1382°N, 118.1253°W)
Time: 02:10:24
(UTC-08:00)

BREEZE M DEB (TANK) - Visible Passes

Search period start: 01 February 2015 00:00
Search period end: 11 February 2015 00:00
Orbit: 342 x 13798 km, 49.6° (Epoch: 31 January)

Date Brightness Start Highest point End Pass type
(mag) Time Alt. Az. Time Alt. Az. Time Alt. Az.
01 Feb 5.1 19:33:42 10° WNW 19:37:56 20° WSW 19:39:14 16° SW visible
02 Feb 9.2 05:55:07 10° SSE 07:16:39 37° ESE 08:06:22 10° ENE visible
03 Feb 4.8 18:56:17 10° WNW 19:02:40 34° WSW 19:05:19 11° S visible
04 Feb 9.4 05:23:35 10° SSE 06:34:18 32° ESE 07:28:40 10° ENE visible
05 Feb 4.2 18:18:45 10° NW 18:27:13 54° SW 18:30:19 10° SSE visible
06 Feb 9.7 04:54:11 10° SE 05:51:33 26° ESE 06:50:10 10° ENE visible
07 Feb 8.7 06:27:05 10° S 08:13:16 59° SE 08:54:21 10° NE visible
07 Feb 3.9 17:40:53 10° NW 17:51:30 79° SW 17:54:54 10° SE visible
08 Feb 10.0 04:27:37 10° SE 05:08:26 20° ESE 06:10:32 10° ENE visible
09 Feb 9.0 05:51:02 10° S 07:31:30 53° SE 08:17:27 10° NE visible
10 Feb 10.3 04:05:08 10° ESE 04:25:00 14° ESE 05:28:54 10° ENE visible
